EW8508 Weather Reports


Display with metric or nautical units.
time (UTC)temp
F
wind
direction
speed
MPH
gust
MPH
rain 1hr
in
rain 24hr
in
rain mn
in
humidity
%
barometer
mb
20200708120304 76 152 2.0 3.0 0.00 0.05 0.00 99
20200708115804 76 170 2.0 3.0 0.00 0.05 0.00 99
20200708115304 76 184 2.0 3.0 0.00 0.05 0.00 99
20200708114808 76 194 2.0 3.0 0.00 0.05 0.00 99
20200708114304 76 174 3.0 3.0 0.00 0.05 0.00 99
20200708113804 76 189 0.0 2.0 0.00 0.05 0.00 99
20200708113304 75 138 1.0 2.0 0.00 0.05 0.00 99
20200708112806 75 180 2.0 2.0 0.00 0.05 0.00 99
20200708112304 75 173 1.0 3.0 0.00 0.05 0.00 99
20200708111804 75 130 2.0 3.0 0.00 0.05 0.00 99
20200708111305 75 124 2.0 3.0 0.00 0.05 0.00 99
20200708110805 75 147 1.0 1.0 0.00 0.05 0.00 99
20200708110304 75 141 1.0 2.0 0.00 0.05 0.00 99
20200708105804 75 150 2.0 2.0 0.00 0.05 0.00 99
20200708105306 75 123 2.0 3.0 0.00 0.05 0.00 99
20200708104805 75 128 0.0 3.0 0.00 0.05 0.00 99
20200708104304 75 165 1.0 2.0 0.00 0.05 0.00 99
20200708103819 75 202 0.0 2.0 0.00 0.05 0.00 99
20200708103304 75 236 0.0 2.0 0.00 0.05 0.00 99
20200708102805 75 170 2.0 3.0 0.00 0.05 0.00 99
20200708102305 75 112 2.0 3.0 0.00 0.05 0.00 99
20200708101804 75 135 1.0 3.0 0.00 0.05 0.00 99
20200708101305 75 127 2.0 3.0 0.00 0.05 0.00 99
20200708100806 75 129 2.0 3.0 0.00 0.05 0.00 99
20200708100305 75 159 2.0 3.0 0.00 0.05 0.00 99
20200708095806 75 192 2.0 3.0 0.00 0.05 0.00 99
20200708095306 75 180 2.0 5.0 0.00 0.05 0.00 99
20200708094805 76 187 2.0 5.0 0.00 0.05 0.00 99
20200708094305 76 136 2.0 3.0 0.00 0.05 0.00 99
20200708093808 76 170 2.0 3.0 0.00 0.05 0.00 99
20200708093306 76 147 2.0 2.0 0.00 0.05 0.00 99
20200708092808 76 172 1.0 2.0 0.00 0.05 0.00 99
20200708092306 76 170 2.0 3.0 0.00 0.05 0.00 99
20200708091824 76 169 2.0 3.0 0.00 0.05 0.00 99
20200708091305 76 147 2.0 3.0 0.00 0.05 0.00 99
20200708090816 76 147 2.0 3.0 0.00 0.05 0.00 99
20200708090304 76 164 2.0 3.0 0.00 0.05 0.00 99
20200708085804 76 168 2.0 3.0 0.00 0.05 0.00 99
20200708085305 76 135 1.0 2.0 0.00 0.05 0.00 99
20200708084804 76 200 0.0 2.0 0.00 0.05 0.00 99
20200708084304 76 93 0.0 2.0 0.00 0.05 0.00 99
20200708083808 76 158 0.0 2.0 0.00 0.05 0.00 99
20200708083304 76 142 1.0 2.0 0.00 0.05 0.00 99
20200708082805 76 171 0.0 2.0 0.00 0.05 0.00 99
20200708082326 76 182 2.0 2.0 0.00 0.05 0.00 99
20200708081804 76 184 2.0 3.0 0.00 0.05 0.00 99
20200708081305 76 180 2.0 3.0 0.00 0.05 0.00 99
20200708080806 76 168 1.0 2.0 0.00 0.05 0.00 99
20200708080304 76 151 1.0 2.0 0.00 0.05 0.00 99
20200708075805 76 145 2.0 2.0 0.00 0.05 0.00 99
20200708075304 76 141 2.0 2.0 0.00 0.05 0.00 99
20200708074806 76 158 1.0 3.0 0.00 0.05 0.00 99
20200708074305 76 182 2.0 3.0 0.00 0.05 0.00 99
20200708073805 76 167 2.0 2.0 0.00 0.05 0.00 99
20200708073304 76 184 2.0 2.0 0.00 0.05 0.00 99
20200708072804 76 176 1.0 3.0 0.00 0.05 0.00 99
20200708072305 76 154 1.0 5.0 0.00 0.05 0.00 99
20200708071805 76 171 2.0 5.0 0.00 0.05 0.00 99
20200708071304 76 193 3.0 5.0 0.00 0.05 0.00 99
20200708070805 76 144 2.0 3.0 0.00 0.05 0.00 99
20200708070304 76 168 2.0 3.0 0.00 0.05 0.00 99
20200708065804 76 172 1.0 2.0 0.00 0.05 0.00 99
20200708065304 76 181 2.0 2.0 0.00 0.05 0.00 99
20200708064804 76 187 1.0 2.0 0.00 0.05 0.00 99
20200708064304 76 160 1.0 2.0 0.00 0.05 0.00 99
20200708063805 76 196 2.0 2.0 0.00 0.05 0.00 99
20200708063304 76 178 1.0 1.0 0.00 0.05 0.00 99
20200708062804 75 180 0.0 3.0 0.00 0.05 0.00 99
20200708062304 75 171 2.0 3.0 0.00 0.05 0.00 99
20200708061806 75 193 2.0 2.0 0.00 0.05 0.00 99
20200708061305 75 177 0.0 3.0 0.00 0.05 0.00 99
20200708060805 75 192 0.0 3.0 0.00 0.05 0.00 99
20200708060304 75 158 2.0 3.0 0.00 0.05 0.00 99
20200708055804 75 180 3.0 3.0 0.00 0.05 0.00 99
20200708055305 75 193 2.0 2.0 0.00 0.05 0.00 99
20200708054804 75 144 2.0 2.0 0.00 0.05 0.00 99
20200708054304 75 180 1.0 2.0 0.00 0.05 0.00 99
20200708053804 75 190 2.0 2.0 0.00 0.05 0.00 99
20200708053304 75 192 0.0 0.0 0.00 0.05 0.00 99
20200708052805 75 180 0.0 0.0 0.00 0.05 0.00 99
20200708052312 75 154 0.0 0.0 0.00 0.05 0.00 99
20200708051804 75 123 0.0 1.0 0.00 0.05 0.00 99
20200708051304 75 173 0.0 1.0 0.00 0.05 0.00 99
20200708050804 75 173 0.0 1.0 0.00 0.05 0.00 99
20200708050304 75 231 0.0 1.0 0.00 0.05 0.00 99
20200708045805 75 180 0.0 1.0 0.00 0.05 0.05 99
20200708045304 75 158 0.0 1.0 0.00 0.05 0.05 99
20200708044804 75 209 1.0 1.0 0.00 0.05 0.05 99
20200708044305 75 112 0.0 0.0 0.00 0.05 0.05 99
20200708043805 75 135 0.0 1.0 0.00 0.05 0.05 99
20200708043304 75 166 1.0 1.0 0.00 0.05 0.05 99
20200708042805 75 128 1.0 1.0 0.00 0.05 0.05 99
20200708042304 75 133 0.0 0.0 0.00 0.05 0.05 99
20200708041806 75 338 0.0 0.0 0.00 0.05 0.05 99
20200708041304 75 22 0.0 0.0 0.00 0.05 0.05 99
20200708040804 75 79 0.0 1.0 0.00 0.05 0.05 99
20200708040304 75 167 0.0 1.0 0.00 0.05 0.05 99
20200708035805 75 117 1.0 1.0 0.00 0.05 0.05 99
20200708035306 75 149 0.0 1.0 0.00 0.05 0.05 99
20200708034805 75 180 0.0 1.0 0.00 0.05 0.05 99
20200708034304 75 180 0.0 2.0 0.00 0.05 0.05 99
20200708033810 75 167 0.0 2.0 0.00 0.05 0.05 99
20200708033304 75 161 0.0 2.0 0.00 0.05 0.05 99
20200708032806 75 156 2.0 2.0 0.00 0.05 0.05 99
20200708032305 75 158 2.0 2.0 0.00 0.05 0.05 99
20200708031805 75 180 0.0 2.0 0.00 0.05 0.05 99
20200708031304 75 145 2.0 2.0 0.00 0.05 0.05 99
20200708030804 75 81 1.0 2.0 0.00 0.05 0.05 99
20200708030304 76 129 1.0 2.0 0.00 0.05 0.05 99
20200708025808 76 96 2.0 2.0 0.00 0.05 0.05 99
20200708025304 76 68 1.0 2.0 0.00 0.05 0.05 99
20200708024804 76 120 1.0 2.0 0.00 0.05 0.05 99
20200708024306 76 68 1.0 2.0 0.00 0.05 0.05 99
20200708023806 76 142 1.0 2.0 0.00 0.05 0.05 99
20200708023304 76 85 0.0 2.0 0.00 0.05 0.05 99
20200708022804 76 122 2.0 2.0 0.00 0.05 0.05 99
20200708022306 76 111 0.0 2.0 0.00 0.05 0.05 98
20200708021805 76 112 0.0 2.0 0.00 0.05 0.05 98
20200708021304 76 146 1.0 2.0 0.00 0.05 0.05 98
20200708020806 76 83 0.0 2.0 0.00 0.05 0.05 98
20200708020307 76 117 0.0 2.0 0.00 0.05 0.05 98
20200708015805 76 162 1.0 2.0 0.00 0.05 0.05 98
20200708015305 76 180 1.0 3.0 0.00 0.05 0.05 98
20200708014804 76 180 2.0 3.0 0.00 0.05 0.05 98
20200708014304 76 175 2.0 3.0 0.00 0.05 0.05 98
20200708013805 76 206 0.0 1.0 0.00 0.05 0.05 97
20200708013305 76 194 0.0 1.0 0.00 0.05 0.05 97
20200708012806 77 244 0.0 3.0 0.00 0.05 0.05 97
20200708012307 77 177 2.0 3.0 0.00 0.05 0.05 97
20200708011804 77 175 3.0 3.0 0.00 0.05 0.05 96
20200708011304 77 180 3.0 3.0 0.00 0.05 0.05 95
20200708010805 77 129 0.0 1.0 0.00 0.05 0.05 94
20200708010305 77 82 0.0 1.0 0.00 0.05 0.05 93
20200708005804 77 112 0.0 2.0 0.00 0.05 0.05 94
20200708005313 77 167 2.0 3.0 0.00 0.05 0.05 94
20200708004805 78 147 2.0 3.0 0.00 0.05 0.05 93
20200708004304 78 167 2.0 2.0 0.00 0.05 0.05 92
20200708003806 78 168 1.0 2.0 0.00 0.05 0.05 91
20200708003306 78 270 0.0 1.0 0.00 0.05 0.05 91
20200708002804 78 338 1.0 1.0 0.00 0.05 0.05 91
20200708002308 78 303 0.0 2.0 0.00 0.05 0.05 91
20200708001804 78 43 1.0 2.0 0.00 0.05 0.05 91
20200708001304 78 305 0.0 3.0 0.00 0.05 0.05 92
20200708000805 78 68 2.0 3.0 0.00 0.05 0.05 92
20200708000304 78 156 2.0 3.0 0.00 0.05 0.05 91
20200707235806 79 87 2.0 2.0 0.00 0.05 0.05 91
20200707235306 78 45 2.0 5.0 0.00 0.05 0.05 92
20200707234807 78 45 2.0 5.0 0.00 0.05 0.05 92
20200707234316 78 42 2.0 7.0 0.00 0.05 0.05 93
20200707233810 78 355 2.0 8.0 0.00 0.05 0.05 94
20200707233304 78 22 5.0 8.0 0.00 0.05 0.05 93
20200707232805 78 276 3.0 8.0 0.00 0.05 0.05 95
20200707232304 79 52 5.0 8.0 0.00 0.05 0.05 92
20200707231806 79 305 5.0 8.0 0.00 0.05 0.05 90
20200707231304 80 307 5.0 10.0 0.00 0.05 0.05 86
20200707230805 80 293 6.0 10.0 0.00 0.05 0.05 84
20200707230304 82 325 6.0 10.0 0.00 0.05 0.05 82
20200707225805 83 29 7.0 10.0 0.00 0.05 0.05 78
20200707225304 87 9 7.0 9.0 0.00 0.05 0.05 75
20200707224804 87 349 0.0 2.0 0.00 0.05 0.05 79
20200707224304 88 287 2.0 3.0 0.00 0.05 0.05 78
20200707223806 89 95 2.0 5.0 0.00 0.05 0.05 74
20200707223304 88 180 2.0 5.0 0.00 0.05 0.05 76
20200707222806 88 126 1.0 3.0 0.00 0.05 0.05 77
20200707222304 87 180 2.0 3.0 0.00 0.05 0.05 79
20200707221806 87 127 2.0 5.0 0.00 0.05 0.05 79
20200707221306 87 84 3.0 5.0 0.00 0.05 0.05 79
20200707220804 86 130 2.0 5.0 0.00 0.05 0.05 81
20200707220304 87 148 4.0 6.0 0.00 0.05 0.05 79
20200707215804 87 181 3.0 6.0 0.00 0.05 0.05 78
20200707215304 88 171 2.0 6.0 0.00 0.05 0.05 78
20200707214805 87 172 3.0 6.0 0.00 0.05 0.05 80
20200707214304 88 196 3.0 6.0 0.00 0.05 0.05 79
20200707213806 87 127 2.0 7.0 0.00 0.05 0.05 80
20200707213304 87 158 5.0 7.0 0.00 0.05 0.05 80
20200707212805 86 149 3.0 5.0 0.00 0.05 0.05 82
20200707212306 84 112 2.0 3.0 0.00 0.05 0.05 85
20200707211809 84 187 3.0 3.0 0.00 0.05 0.05 85
20200707211305 83 270 1.0 3.0 0.00 0.05 0.05 86
20200707210810 83 92 2.0 3.0 0.00 0.05 0.05 86
20200707210306 82 132 2.0 3.0 0.00 0.05 0.05 87
20200707205805 83 74 2.0 3.0 0.00 0.05 0.05 89
20200707205305 82 135 3.0 3.0 0.00 0.05 0.05 89
20200707204806 82 144 1.0 2.0 0.01 0.05 0.05 88
20200707204304 83 0 2.0 2.0 0.03 0.05 0.05 86
20200707203806 82 62 2.0 3.0 0.05 0.05 0.05 90
20200707203304 82 344 2.0 5.0 0.05 0.05 0.05 90
20200707202805 83 318 3.0 5.0 0.05 0.05 0.05 84
20200707202305 83 292 3.0 5.0 0.05 0.05 0.05 86
20200707201807 82 301 1.0 3.0 0.05 0.05 0.05 92
20200707201307 83 329 3.0 3.0 0.05 0.05 0.05 86
20200707200810 82 54 1.0 3.0 0.05 0.05 0.05 89
20200707200307 81 322 2.0 3.0 0.05 0.05 0.05 90
20200707195806 79 123 3.0 5.0 0.05 0.05 0.05 93
20200707195305 78 117 2.0 7.0 0.05 0.06 0.05 96
20200707194806 80 333 2.0 8.0 0.04 0.05 0.04 93
20200707194304 80 149 4.0 8.0 0.02 0.03 0.02 89
20200707193806 82 315 5.0 8.0 0.00 0.02 0.00 86
20200707193305 85 283 6.0 8.0 0.00 0.03 0.00 84
20200707192806 87 272 6.0 7.0 0.00 0.07 0.00 84
20200707192314 88 237 4.0 10.0 0.00 0.14 0.00 81
20200707191806 88 215 3.0 10.0 0.00 0.28 0.00 79
20200707191307 89 270 4.0 7.0 0.00 0.38 0.00 77
20200707190806 91 182 3.0 6.0 0.00 0.40 0.00 73
20200707190306 90 53 3.0 6.0 0.00 0.40 0.00 73
20200707185807 90 243 5.0 6.0 0.00 0.43 0.00 74
20200707185317 90 142 3.0 6.0 0.00 0.43 0.00 73
20200707184807 92 282 4.0 6.0 0.00 0.45 0.00 72
20200707184310 90 203 4.0 5.0 0.00 0.45 0.00 74
20200707183806 90 310 2.0 6.0 0.00 0.45 0.00 77
20200707183304 86 285 2.0 6.0 0.00 0.45 0.00 83
20200707182805 87 235 3.0 6.0 0.00 0.45 0.00 80
20200707182309 88 287 3.0 6.0 0.00 0.45 0.00 75
20200707181805 89 255 3.0 6.0 0.00 0.45 0.00 72
20200707181305 90 291 3.0 6.0 0.00 0.45 0.00 70
20200707180806 90 279 3.0 6.0 0.00 0.45 0.00 71
20200707180305 89 281 3.0 6.0 0.00 0.45 0.00 72
20200707175805 89 320 3.0 6.0 0.00 0.45 0.00 72
20200707175304 89 352 3.0 5.0 0.00 0.45 0.00 72
20200707174805 90 292 3.0 6.0 0.00 0.45 0.00 73
20200707174304 89 282 3.0 7.0 0.00 0.45 0.00 72
20200707173805 89 347 5.0 7.0 0.00 0.45 0.00 72
20200707173305 89 323 3.0 6.0 0.00 0.45 0.00 73
20200707172806 90 305 3.0 6.0 0.00 0.45 0.00 73
20200707172305 89 298 3.0 6.0 0.00 0.45 0.00 74
20200707171805 90 195 3.0 6.0 0.00 0.45 0.00 73
20200707171305 90 349 4.0 6.0 0.00 0.45 0.00 73
20200707170805 88 294 2.0 5.0 0.00 0.45 0.00 76
20200707170305 88 304 2.0 5.0 0.00 0.45 0.00 77
20200707165808 88 286 3.0 6.0 0.00 0.45 0.00 75
20200707165306 87 310 3.0 6.0 0.00 0.45 0.00 80
20200707164809 87 279 2.0 7.0 0.00 0.45 0.00 79
20200707164304 88 311 3.0 7.0 0.00 0.45 0.00 77
20200707163806 89 283 4.0 7.0 0.00 0.45 0.00 74
20200707163305 88 283 3.0 6.0 0.00 0.45 0.00 76
20200707162806 88 297 3.0 7.0 0.00 0.45 0.00 78
20200707162304 87 338 3.0 7.0 0.00 0.45 0.00 77
20200707161806 87 135 5.0 7.0 0.00 0.45 0.00 79
20200707161306 88 200 2.0 6.0 0.00 0.45 0.00 77
20200707160809 86 289 3.0 6.0 0.00 0.45 0.00 80
20200707160304 85 264 3.0 6.0 0.00 0.45 0.00 83
20200707155824 86 281 3.0 6.0 0.00 0.45 0.00 81
20200707155304 87 281 4.0 6.0 0.00 0.45 0.00 80
20200707154809 87 243 3.0 6.0 0.00 0.45 0.00 79
20200707154305 86 259 3.0 6.0 0.00 0.45 0.00 82
20200707153809 85 236 4.0 6.0 0.00 0.45 0.00 83
20200707153305 86 270 5.0 6.0 0.00 0.45 0.00 81
20200707152805 85 7 4.0 6.0 0.00 0.45 0.00 83
20200707151805 83 239 3.0 6.0 0.00 0.45 0.00 87
20200707151304 83 270 3.0 6.0 0.00 0.45 0.00 88
20200707150806 84 261 3.0 5.0 0.00 0.45 0.00 86
20200707150305 83 198 2.0 5.0 0.00 0.45 0.00 88
20200707145805 83 181 3.0 7.0 0.00 0.45 0.00 88
20200707145322 84 145 4.0 7.0 0.00 0.45 0.00 88
20200707144806 84 260 3.0 5.0 0.00 0.45 0.00 86
20200707144305 82 291 2.0 5.0 0.00 0.45 0.00 90
20200707143805 82 235 3.0 5.0 0.00 0.45 0.00 89
20200707143306 82 141 3.0 5.0 0.00 0.45 0.00 91
20200707142805 82 256 3.0 5.0 0.00 0.45 0.00 91
20200707142313 82 283 3.0 5.0 0.00 0.45 0.00 90
20200707141805 81 180 2.0 5.0 0.00 0.45 0.00 93
20200707141304 81 82 3.0 5.0 0.00 0.45 0.00 93
20200707140806 81 116 1.0 3.0 0.00 0.45 0.00 94
20200707140306 80 270 1.0 5.0 0.00 0.45 0.00 96
20200707135806 79 256 2.0 5.0 0.00 0.45 0.00 96
20200707135305 80 269 1.0 3.0 0.00 0.45 0.00 96
20200707134805 79 279 2.0 3.0 0.00 0.45 0.00 97
20200707134305 79 240 0.0 2.0 0.00 0.45 0.00 99
20200707133805 78 211 1.0 2.0 0.00 0.45 0.00 99
20200707133306 78 204 1.0 3.0 0.00 0.45 0.00 99
20200707132808 78 143 0.0 3.0 0.00 0.45 0.00 99
20200707132305 78 205 2.0 2.0 0.00 0.45 0.00 99
20200707131806 77 175 0.0 2.0 0.00 0.45 0.00 99
20200707131304 77 330 1.0 2.0 0.00 0.45 0.00 99
20200707130805 77 357 2.0 3.0 0.00 0.45 0.00 99
20200707130305 76 211 2.0 5.0 0.00 0.45 0.00 99
20200707125804 77 90 2.0 5.0 0.00 0.45 0.00 99
20200707125304 77 168 2.0 3.0 0.00 0.45 0.00 99
20200707124806 77 213 1.0 2.0 0.00 0.45 0.00 99
20200707124304 77 189 0.0 1.0 0.00 0.45 0.00 99
20200707123806 77 259 1.0 2.0 0.00 0.45 0.00 99
20200707123304 76 161 0.0 2.0 0.00 0.45 0.00 99
20200707122804 76 201 1.0 2.0 0.00 0.45 0.00 99
20200707122306 76 266 0.0 2.0 0.00 0.45 0.00 99
20200707121804 76 209 1.0 2.0 0.00 0.45 0.00 99
20200707121304 76 262 1.0 2.0 0.00 0.45 0.00 99
20200707120806 76 270 2.0 3.0 0.00 0.45 0.00 99